SCP
-0 0 0 0 0 -0 0 -0 -0 0 0 -0 -0 -0 -0 0 0 -0 -0 -0 -0 -0 -0 -0 -0 -0 -0 -1 -1 -1 -0 -0 -1 -1 -1 -0 -0 -0 -0 -0 -0 -0 -0 0 0 0 0 -0 -0
0 -0 -0 0 -0 0 0 0 0 -0 0 -0 -0 -0 -0 -0 -0 -0 -0 -0 -0 -0 -0 -0 -0 -0 -0 -1 -1 -1 -1 -1 -0 -0 -1 -0 -0 -1 -0 -0 -0 -0 -0 -0 0 0 0 -0 -0
-0 -0 -0 -0 -0 0 0 0 0 -0 -0 -0 -0 -0 -0 -0 -0 -0 -0 -0 -0 -0 -0 -0 -0 -0 -0 -1 -0 -1 -1 -0 -0 -0 -1 -0 -0 -1 -0 -0 -0 -0 -0 -0 -0 -0 -0 0 0
-0 -0 0 -0 0 0 0 -0 -0 -0 -0 -0 -0 -0 -0 -0 -0 -0 -0 -0 -0 -0 -0 -0 -0 -0 -0 -1 -0 -0 -1 -1 -0 -0 -0 -0 -0 -1 -0 -0 -0 -0 -0 0 -0 -0 -0 0 0
0 0 0 0 0 0 -0 -0 0 -0 -0 -0 -0 -0 -0 -0 -0 -0 -0 0 -0 -0 -0 -0 -0 -0 -1 -1 -1 -1 -1 -1 -0 -0 -0 -0 -0 -0 -0 -0 -0 -0 -0 -0 -0 -0 0 -0 -0
0 0 -0 -0 0 -0 0 -0 -0 -0 -0 -0 -0 -0 -0 -0 -0 -0 -0 -0 -0 -0 -0 -0 -0 -1 -1 -0 -1 -1 -1 -1 -0 -0 -0 0 -0 -0 -0 -0 -0 0 -0 -0 -0 0 -0 0 0
0 0 -0 0 -0 -0 -0 -0 0 0 0 -0 -0 -0 -0 -0 -0 -0 -0 -0 -0 -0 -0 -0 -0 -0 -0 -0 -0 -0 -0 -0 -0 -0 -0 -0 -0 -0 -0 -0 0 0 0 0 0 0 0 0 0
0 0 0 -0 -0 0 0 0 0 0 0 -0 -0 0 0 -0 -0 -0 -0 -0 -0 -0 -0 -0 -0 -0 -0 -0 -0 -0 -0 -0 -0 -0 -0 -0 -0 0 0 0 0 0 0 0 0 0 0 0 0
0 0 -0 0 -0 -0 -0 0 0 0 0 0 0 -0 -0 -0 -0 -0 -0 -0 -0 -0 -0 -0 -0 -0 -0 -0 -0 -0 -0 -0 -0 -0 -0 -0 0 0 -0 0 0 0 0 -0 -0 0 0 0 -0
-0 0 -0 0 0 -0 -0 -0 -0 -0 0 -0 -0 -0 -0 -1 -0 -0 -0 -0 -0 -0 -0 -0 -0 -0 -0 -0 0 0 0 0 0 -0 -0 0 0 0 0 0 0 0 -0 -0 -0 -0 -0 -0 -0
0 0 0 0 -0 -0 -0 0 0 -0 0 0 -0 -0 -0 -0 -0 -0 -0 -0 -0 -0 -0 -0 -0 0 -0 -0 0 0 0 0 0 0 0 0 0 0 0 -0 -0 -0 0 -0 0 0 0 0 -0
0 0 0 0 -0 -0 0 0 0 0 0 -0 -0 -0 -0 0 -0 -0 -0 -0 -0 -0 -0 -0 -0 -0 -0 -0 -0 -0 0 0 0 -0 -0 0 0 0 0 -0 -0 -0 -0 -0 -0 0 0 0 0
0 0 0 0 0 0 0 0 0 0 0 -0 -0 -0 -0 -0 0 -0 -0 -0 0 0 -0 -1 -0 -0 -0 -0 0 0 -0 0 0 0 0 0 0 0 0 0 -0 0 -0 -0 -0 0 -0 0 0
0 -0 0 0 0 0 0 0 0 0 -0 -0 -0 -0 0 0 0 0 0 0 0 0 -0 -0 -1 -1 -0 -0 0 0 0 0 -0 0 -0 -0 0 -0 0 0 0 0 0 0 0 -0 -0 -0 -0
0 0 -0 0 0 -0 0 0 0 0 -0 -0 -0 -0 -0 0 0 0 0 -0 0 0 -0 -0 -0 -0 -0 -0 -0 0 0 0 0 -0 0 0 0 0 -0 0 0 0 -0 -0 -0 -0 -0 -0 0
0 0 0 0 0 0 -0 0 -0 -0 -0 -0 -0 -0 0 0 0 0 0 0 0 0 -0 -1 -0 -0 -0 -0 -0 -0 0 0 0 -0 0 0 -0 -0 0 0 0 0 -0 -0 -0 -0 -0 -0 0
0 0 -0 0 0 0 0 0 0 0 -0 -0 -0 0 0 0 0 0 0 0 0 0 0 -0 -0 -0 0 0 -0 -0 -0 0 0 -0 0 0 0 0 0 -0 0 0 -0 -0 -0 -0 -0 -0 -0
-0 -0 -0 0 0 0 0 0 -0 0 0 0 -0 -0 -0 -0 -0 0 0 0 0 0 0 1 -0 -0 0 0 0 0 0 0 0 0 0 0 0 0 0 -0 -0 -0 -0 -0 -0 -0 -0 -0 -0
0 0 0 0 0 0 0 0 -0 -0 0 0 0 -0 -0 -0 -0 -0 0 0 0 1 1 3 1 0 0 1 0 0 0 0 0 0 0 0 0 0 -0 0 -0 0 0 0 -0 0 -0 -0 -0
-0 0 0 0 0 -0 0 0 0 -0 0 0 0 0 0 0 0 -0 -0 0 1 1 1 3 3 1 1 1 1 0 0 0 0 0 0 0 0 -0 -0 -0 0 0 -0 -0 0 0 0 -0 -0
0 0 0 0 0 -0 0 -0 0 0 -0 -0 0 0 0 -0 -1 -1 0 -0 0 1 1 2 1 1 1 0 0 0 0 0 0 0 0 0 0 -0 -0 -0 0 0 -0 0 0 0 0 0 0
0 0 0 0 0 0 -0 0 0 -0 0 0 0 -0 -0 1 -1 -1 0 0 0 -0 1 1 1 1 0 1 0 1 1 0 0 0 0 0 -0 -0 -0 -0 -0 -0 0 0 0 0 0 0 0
0 0 -0 -0 0 0 0 0 0 0 0 0 -0 0 -0 1 0 -1 -0 -0 0 0 0 1 1 1 1 1 0 1 1 0 0 0 0 0 0 -0 -0 -0 -0 -0 -0 -0 -0 0 -0 -0 0
-0 -0 0 0 -0 -0 0 0 0 0 0 -0 0 -0 -0 -0 0 0 -0 -0 0 -0 1 1 1 1 1 1 1 1 1 0 0 0 0 0 0 0 -0 -0 -0 -0 -0 0 -0 -0 0 0 -0
0 0 0 0 0 0 0 0 -0 -0 -0 -0 -0 -0 -0 0 -0 0 0 -0 -0 -0 1 1 1 1 1 1 1 1 1 0 0 1 1 0 0 0 0 0 0 -0 -0 -0 0 0 -0 -0 -0
0 -0 0 0 -0 -0 -0 0 -0 0 0 0 0 0 -0 1 0 -0 0 -0 -0 -0 1 1 2 2 1 2 1 1 1 1 1 1 1 1 0 0 0 0 0 0 -0 -0 0 0 0 -0 -0
-0 0 0 0 0 0 0 0 -0 0 0 -0 0 1 1 0 0 0 2 2 0 0 1 1 2 2 1 1 1 1 1 2 2 1 0 1 0 0 1 0 -0 -0 0 0 0 0 0 0 -0
0 -0 0 0 0 0 0 0 -0 0 0 -0 1 1 1 0 0 0 1 0 1 1 -0 1 3 0 1 1 1 1 1 2 2 2 1 1 0 0 0 0 0 0 0 0 0 0 0 0 0
0 0 0 -0 0 0 -0 -0 0 0 0 -0 0 0 0 0 0 0 1 1 1 1 1 1 1 0 1 1 1 2 2 2 2 2 2 1 1 0 1 0 0 0 0 0 0 0 0 0 0
0 0 0 0 0 0 0 -0 0 0 -0 0 1 1 0 0 0 1 1 0 0 1 2 1 2 2 1 1 1 2 3 2 2 1 1 1 1 1 2 0 0 1 0 0 0 0 0 0 0
Wind_Speed_500mb
28 37 38 26 11 2 7 1 3 14 22 43 51 34 26 19 9 11 56 43 52 54 53 47 48 51 50 50 50 53 50 47 48 50 49 45 43 42 39 39 37 35 35 33 33 35 36 38 36
26 16 34 15 9 6 7 11 16 20 32 56 55 54 45 29 47 64 57 46 50 55 54 49 47 49 49 49 49 49 48 49 45 44 43 41 40 39 36 35 33 31 30 30 29 29 30 32 30
49 28 14 4 4 9 1 10 20 41 45 40 35 40 22 30 62 43 46 48 52 54 51 49 47 50 48 46 47 48 44 42 39 40 40 35 30 29 31 32 29 25 26 24 22 21 22 22 21
27 48 14 7 11 14 22 21 51 6 44 54 45 23 34 58 44 49 46 46 49 43 46 47 46 49 48 47 44 43 42 41 36 29 28 30 27 26 25 25 26 24 21 17 16 16 16 16 16
16 16 2 9 10 13 30 30 45 18 48 58 53 38 52 52 65 63 51 44 53 36 43 46 46 48 46 46 45 42 40 37 34 22 17 23 23 21 15 16 16 20 18 16 12 10 9 8 7
14 12 4 7 13 15 10 47 38 31 42 52 48 46 49 72 66 67 54 58 42 34 41 43 42 44 45 43 44 39 37 34 30 25 20 13 16 17 21 9 12 13 15 12 5 4 1 2 4
20 16 4 8 5 7 15 55 34 21 21 30 50 33 53 65 70 59 52 46 37 27 43 43 42 42 41 40 40 37 36 32 29 27 23 20 22 14 33 35 14 14 14 10 4 1 2 4 7
49 9 9 9 8 8 20 20 21 27 14 46 56 16 38 67 66 52 48 46 36 25 32 39 41 40 40 38 35 34 31 27 28 27 29 30 29 34 23 42 26 20 17 11 9 6 6 8 11
24 11 5 6 8 27 51 14 20 13 13 14 14 56 66 61 50 66 46 50 48 30 26 30 37 38 36 34 30 27 26 23 23 26 28 30 34 38 34 42 41 24 20 17 12 5 8 12 14
11 9 9 11 13 27 36 24 1 9 5 42 52 53 59 66 65 65 60 58 56 47 31 23 23 29 31 27 31 27 26 20 22 24 28 29 31 31 27 46 49 29 22 21 11 5 12 17 18
12 8 17 18 13 57 35 19 33 14 4 49 56 60 52 65 63 61 64 51 54 41 39 27 26 24 21 24 31 32 35 20 16 17 25 10 17 17 18 51 49 47 29 21 8 13 22 22 20
19 12 26 16 9 45 22 26 36 27 36 45 50 52 49 49 62 57 57 48 59 51 45 39 29 28 24 18 31 23 34 30 15 6 18 25 15 19 15 39 45 46 37 23 14 11 14 21 16
15 4 28 25 17 25 13 42 35 40 55 55 47 48 48 45 53 62 43 47 54 50 47 50 41 38 30 26 30 26 35 30 21 16 8 12 22 12 17 24 36 50 46 27 26 16 24 24 27
8 10 21 32 17 14 12 19 28 32 57 57 55 52 46 46 43 50 48 57 56 42 41 45 48 37 30 28 26 30 30 14 23 27 18 4 14 19 19 17 26 35 43 32 31 25 29 26 26
15 12 2 17 14 7 19 13 1 57 61 61 58 55 49 45 40 51 47 54 52 46 44 54 49 35 28 22 32 30 30 24 24 27 17 14 13 21 22 21 20 31 41 38 41 33 26 34 27
15 8 6 6 17 13 13 9 16 56 58 60 63 60 53 49 45 46 38 51 50 45 57 52 44 37 29 26 20 27 25 28 19 23 18 16 12 14 25 20 19 23 39 42 40 38 34 24 25
10 3 13 12 16 12 13 10 17 48 58 58 63 64 60 51 45 45 39 45 50 44 54 54 46 38 32 24 19 28 32 25 21 22 23 18 22 13 14 24 21 20 18 29 36 30 33 33 23
13 11 14 14 16 12 5 15 5 55 45 55 58 68 65 54 55 47 44 44 41 40 43 50 44 39 31 26 26 30 30 28 23 26 30 21 19 25 17 30 32 29 26 27 33 34 32 37 30
15 7 7 1 12 8 5 9 20 13 44 45 49 64 68 59 55 56 48 45 44 42 48 49 47 46 39 38 36 29 25 30 33 25 25 30 26 33 35 23 39 36 30 33 30 31 34 37 35
16 15 9 10 7 8 15 18 18 13 8 42 44 60 67 64 61 66 54 43 48 47 45 54 50 49 41 41 37 34 27 25 22 22 25 27 31 38 35 30 33 39 36 38 37 37 34 37 36
13 3 8 1 6 9 12 10 14 14 38 49 22 65 69 76 75 74 54 55 49 55 51 53 52 51 42 37 39 31 30 28 26 28 24 26 35 32 32 35 33 33 42 38 36 28 31 28 24
9 8 8 13 8 10 12 7 11 14 17 20 23 42 69 52 77 55 36 31 46 50 50 45 47 46 37 35 46 42 39 34 25 22 20 23 30 32 35 34 40 36 36 47 33 30 27 28 21
16 12 10 8 13 9 10 11 12 14 11 11 23 33 28 70 73 75 55 46 46 43 54 44 41 40 35 31 38 40 37 25 17 20 19 21 20 24 35 41 37 44 39 44 42 33 32 28 23
14 7 15 13 4 7 12 13 9 10 12 11 40 45 45 52 80 55 56 42 73 55 62 53 45 40 33 28 27 35 34 28 27 26 22 25 25 22 29 34 40 45 45 46 43 45 43 42 36
8 7 9 9 8 8 5 12 16 12 23 22 35 38 58 50 53 31 30 68 70 53 72 59 42 36 35 31 31 30 33 30 30 28 32 29 30 31 25 20 28 37 40 42 44 45 51 47 46
15 7 9 4 6 4 21 8 20 18 35 26 32 10 55 48 43 46 21 55 64 56 69 53 43 37 31 27 29 30 27 34 33 36 39 31 25 27 28 20 43 54 37 33 44 49 52 53 48
21 10 18 9 6 11 7 5 10 28 31 48 17 51 38 39 11 22 25 40 31 65 53 38 37 46 34 20 21 31 33 34 33 30 34 35 31 37 38 49 33 44 43 37 36 47 53 56 55
7 11 11 9 7 7 9 1 7 6 34 29 32 37 48 28 15 24 21 18 19 20 36 24 41 43 14 17 27 31 30 30 34 38 43 45 45 27 26 40 29 30 41 40 46 50 51 51 59
3 9 9 3 6 10 9 10 16 27 38 24 27 40 35 36 31 17 17 22 28 29 36 8 14 13 11 18 21 35 34 29 30 38 36 41 40 39 38 31 29 31 39 44 48 50 48 53 58
15 12 10 7 9 5 12 9 27 31 46 22 42 34 24 32 27 31 38 31 14 8 21 24 3 3 14 12 21 21 42 38 35 33 31 35 38 33 38 45 39 39 39 39 36 41 46 49 57
Wind_Direction_500mb
74 55 70 37 41 70 289 96 85 357 79 82 70 81 78 49 102 142 137 154 148 142 139 141 142 141 138 137 137 133 128 126 127 127 124 121 116 111 107 108 104 103 103 106 114 125 128 130 133
59 35 36 92 92 287 254 170 66 60 92 90 81 87 70 72 101 128 140 155 153 143 143 144 145 144 144 145 143 141 135 132 131 131 130 125 122 119 115 113 108 107 103 107 112 121 130 134 136
60 82 36 35 146 218 223 38 62 65 74 85 77 79 80 111 122 133 145 151 149 147 144 144 147 148 147 150 148 148 140 134 132 136 132 127 122 126 122 120 114 114 113 113 110 119 123 133 142
100 68 81 280 207 252 94 233 83 94 111 105 103 77 113 131 137 143 137 135 138 145 146 147 149 150 151 155 149 149 146 147 139 140 144 143 138 126 123 126 122 118 115 118 120 126 132 140 159
152 107 74 261 199 339 49 65 89 56 101 99 99 95 114 125 132 133 132 128 149 148 154 150 153 155 156 158 157 157 159 157 152 153 157 167 170 166 119 133 139 131 128 124 124 134 139 148 178
156 106 217 27 27 329 27 91 80 53 98 103 105 104 117 134 135 142 137 148 161 158 160 156 157 159 161 162 166 169 174 172 173 175 191 211 208 227 224 188 179 166 146 133 145 147 159 180 250
228 127 195 120 190 3 61 101 60 85 138 144 124 116 134 137 140 149 150 156 167 172 167 161 158 164 167 167 174 182 192 194 198 202 209 214 252 230 258 232 211 202 185 173 195 180 292 307 291
213 107 167 152 139 145 93 66 45 48 179 142 131 143 157 153 148 154 153 161 173 162 164 172 168 169 173 175 182 187 199 205 217 226 226 230 226 245 295 224 226 208 208 199 209 249 293 317 312
140 84 308 141 102 73 69 72 47 103 80 113 151 149 149 157 156 150 144 158 165 170 168 182 183 182 181 180 180 192 201 209 227 244 248 248 249 259 267 230 219 224 216 215 231 253 303 303 305
92 109 133 132 131 128 100 26 165 113 52 115 124 140 147 160 154 156 158 164 174 179 183 167 165 193 189 182 200 201 207 220 240 245 267 263 264 271 274 209 214 226 228 229 235 276 295 291 315
107 135 91 54 35 117 130 162 177 180 228 122 126 140 152 155 163 163 169 169 178 183 181 190 174 153 160 178 181 205 215 228 214 229 238 269 256 262 239 204 217 225 230 232 241 255 291 297 320
92 85 108 120 264 132 155 135 57 331 129 134 143 150 159 166 165 172 174 173 174 184 185 199 190 172 166 198 215 214 204 211 216 207 235 241 264 245 242 227 227 231 232 235 227 265 277 305 308
106 179 142 147 223 125 172 127 136 204 125 135 144 156 168 179 180 179 183 177 176 178 190 193 195 193 186 197 206 196 228 214 209 210 206 258 235 241 251 245 236 235 230 244 250 252 264 274 299
150 228 186 176 160 181 121 128 122 163 132 136 150 164 175 190 190 179 177 173 175 178 182 195 195 199 197 210 214 219 201 234 220 209 217 247 246 244 241 257 239 230 222 230 250 252 242 272 286
222 228 205 155 115 102 89 132 157 151 141 148 160 169 178 192 192 188 189 188 194 191 195 190 195 208 217 240 236 221 223 253 216 196 219 206 259 236 231 252 251 227 208 229 239 244 253 251 280
241 229 130 209 163 171 147 256 184 161 155 160 167 173 180 188 191 194 193 199 198 190 193 199 208 213 215 237 257 238 231 238 239 200 209 223 213 229 236 243 250 226 227 235 234 234 240 256 271
243 12 224 187 193 181 162 204 221 177 167 166 173 173 177 185 190 193 194 205 200 196 198 200 211 212 223 230 226 224 233 238 243 237 221 217 209 198 232 241 232 216 220 219 221 220 235 255 246
249 219 179 167 193 175 92 296 244 189 178 173 172 170 175 182 188 187 193 199 207 201 204 203 209 214 220 226 219 216 225 235 231 237 238 221 224 218 236 213 213 217 208 208 213 227 243 242 240
351 331 360 201 109 90 158 255 292 235 178 170 166 170 175 183 190 188 193 197 209 203 201 202 202 213 212 216 224 219 230 232 239 250 241 236 242 223 223 216 212 214 212 216 222 232 242 245 249
302 272 300 100 70 132 220 231 242 53 52 181 166 174 176 185 185 186 189 187 201 203 204 204 211 213 221 230 235 228 240 242 240 238 240 233 234 227 222 215 217 219 214 213 216 226 234 246 240
274 73 50 239 315 304 281 23 47 356 38 21 345 183 185 185 179 178 179 195 192 202 201 211 218 218 225 231 218 223 217 224 225 235 225 226 223 236 232 225 217 227 223 217 214 227 227 228 218
307 63 24 333 7 266 211 186 351 339 323 6 321 349 185 176 111 111 170 191 199 204 204 215 224 226 237 241 229 235 231 227 234 244 246 237 233 233 227 224 227 232 229 229 230 220 213 224 223
268 21 330 286 275 316 296 74 275 347 341 5 3 258 342 93 177 170 195 241 211 201 206 215 226 228 233 231 221 225 222 231 230 232 241 240 243 240 236 241 243 240 243 238 228 224 226 227 230
290 304 291 278 229 348 7 110 274 220 222 248 236 278 158 174 184 177 204 264 208 200 208 210 220 229 228 215 212 213 221 225 227 240 240 247 250 256 247 242 241 237 245 240 242 236 239 243 240
291 279 316 333 44 211 347 65 242 234 235 207 213 259 89 119 144 158 214 215 212 206 200 201 210 220 220 212 213 220 232 223 221 231 235 244 250 248 250 238 252 238 237 242 246 246 244 239 242
255 205 183 213 174 221 53 96 288 252 233 247 222 165 106 83 79 112 63 229 206 203 204 205 204 207 217 231 232 230 234 234 229 228 243 249 249 253 253 243 288 248 242 243 244 250 247 246 241
263 273 246 186 185 86 6 299 345 13 336 283 263 105 114 133 132 62 64 70 180 198 204 208 219 200 199 221 244 245 249 243 246 241 248 240 251 263 238 242 260 227 243 252 250 248 250 249 247
262 259 344 345 89 32 18 281 254 46 253 260 104 113 130 138 352 69 58 56 55 99 209 209 240 213 140 260 269 252 264 262 255 254 247 247 252 266 257 247 253 237 249 251 251 254 260 254 250
281 267 313 100 115 137 154 254 194 223 236 284 123 118 111 106 104 105 82 71 66 45 58 86 225 236 278 281 278 260 255 270 279 262 259 258 262 255 258 277 266 258 267 264 261 262 267 261 254
47 10 35 101 294 163 135 264 147 202 242 188 102 109 116 122 136 139 131 117 112 118 29 24 332 272 224 213 254 266 248 260 274 263 260 262 266 258 251 273 255 259 265 260 272 277 272 271 257
Wind_Speed_850mb
28 37 38 26 11 2 7 1 3 14 22 43 51 34 26 19 9 11 56 43 52 54 53 47 48 51 50 50 50 53 50 47 48 50 49 45 43 42 39 39 37 35 35 33 33 35 36 38 36
26 16 34 15 9 6 7 11 16 20 32 56 55 54 45 29 47 64 57 46 50 55 54 49 47 49 49 49 49 49 48 49 45 44 43 41 40 39 36 35 33 31 30 30 29 29 30 32 30
49 28 14 4 4 9 1 10 20 41 45 40 35 40 22 30 62 43 46 48 52 54 51 49 47 50 48 46 47 48 44 42 39 40 40 35 30 29 31 32 29 25 26 24 22 21 22 22 21
27 48 14 7 11 14 22 21 51 6 44 54 45 23 34 58 44 49 46 46 49 43 46 47 46 49 48 47 44 43 42 41 36 29 28 30 27 26 25 25 26 24 21 17 16 16 16 16 16
16 16 2 9 10 13 30 30 45 18 48 58 53 38 52 52 65 63 51 44 53 36 43 46 46 48 46 46 45 42 40 37 34 22 17 23 23 21 15 16 16 20 18 16 12 10 9 8 7
14 12 4 7 13 15 10 47 38 31 42 52 48 46 49 72 66 67 54 58 42 34 41 43 42 44 45 43 44 39 37 34 30 25 20 13 16 17 21 9 12 13 15 12 5 4 1 2 4
20 16 4 8 5 7 15 55 34 21 21 30 50 33 53 65 70 59 52 46 37 27 43 43 42 42 41 40 40 37 36 32 29 27 23 20 22 14 33 35 14 14 14 10 4 1 2 4 7
49 9 9 9 8 8 20 20 21 27 14 46 56 16 38 67 66 52 48 46 36 25 32 39 41 40 40 38 35 34 31 27 28 27 29 30 29 34 23 42 26 20 17 11 9 6 6 8 11
24 11 5 6 8 27 51 14 20 13 13 14 14 56 66 61 50 66 46 50 48 30 26 30 37 38 36 34 30 27 26 23 23 26 28 30 34 38 34 42 41 24 20 17 12 5 8 12 14
11 9 9 11 13 27 36 24 1 9 5 42 52 53 59 66 65 65 60 58 56 47 31 23 23 29 31 27 31 27 26 20 22 24 28 29 31 31 27 46 49 29 22 21 11 5 12 17 18
12 8 17 18 13 57 35 19 33 14 4 49 56 60 52 65 63 61 64 51 54 41 39 27 26 24 21 24 31 32 35 20 16 17 25 10 17 17 18 51 49 47 29 21 8 13 22 22 20
19 12 26 16 9 45 22 26 36 27 36 45 50 52 49 49 62 57 57 48 59 51 45 39 29 28 24 18 31 23 34 30 15 6 18 25 15 19 15 39 45 46 37 23 14 11 14 21 16
15 4 28 25 17 25 13 42 35 40 55 55 47 48 48 45 53 62 43 47 54 50 47 50 41 38 30 26 30 26 35 30 21 16 8 12 22 12 17 24 36 50 46 27 26 16 24 24 27
8 10 21 32 17 14 12 19 28 32 57 57 55 52 46 46 43 50 48 57 56 42 41 45 48 37 30 28 26 30 30 14 23 27 18 4 14 19 19 17 26 35 43 32 31 25 29 26 26
15 12 2 17 14 7 19 13 1 57 61 61 58 55 49 45 40 51 47 54 52 46 44 54 49 35 28 22 32 30 30 24 24 27 17 14 13 21 22 21 20 31 41 38 41 33 26 34 27
15 8 6 6 17 13 13 9 16 56 58 60 63 60 53 49 45 46 38 51 50 45 57 52 44 37 29 26 20 27 25 28 19 23 18 16 12 14 25 20 19 23 39 42 40 38 34 24 25
10 3 13 12 16 12 13 10 17 48 58 58 63 64 60 51 45 45 39 45 50 44 54 54 46 38 32 24 19 28 32 25 21 22 23 18 22 13 14 24 21 20 18 29 36 30 33 33 23
13 11 14 14 16 12 5 15 5 55 45 55 58 68 65 54 55 47 44 44 41 40 43 50 44 39 31 26 26 30 30 28 23 26 30 21 19 25 17 30 32 29 26 27 33 34 32 37 30
15 7 7 1 12 8 5 9 20 13 44 45 49 64 68 59 55 56 48 45 44 42 48 49 47 46 39 38 36 29 25 30 33 25 25 30 26 33 35 23 39 36 30 33 30 31 34 37 35
16 15 9 10 7 8 15 18 18 13 8 42 44 60 67 64 61 66 54 43 48 47 45 54 50 49 41 41 37 34 27 25 22 22 25 27 31 38 35 30 33 39 36 38 37 37 34 37 36
13 3 8 1 6 9 12 10 14 14 38 49 22 65 69 76 75 74 54 55 49 55 51 53 52 51 42 37 39 31 30 28 26 28 24 26 35 32 32 35 33 33 42 38 36 28 31 28 24
9 8 8 13 8 10 12 7 11 14 17 20 23 42 69 52 77 55 36 31 46 50 50 45 47 46 37 35 46 42 39 34 25 22 20 23 30 32 35 34 40 36 36 47 33 30 27 28 21
16 12 10 8 13 9 10 11 12 14 11 11 23 33 28 70 73 75 55 46 46 43 54 44 41 40 35 31 38 40 37 25 17 20 19 21 20 24 35 41 37 44 39 44 42 33 32 28 23
14 7 15 13 4 7 12 13 9 10 12 11 40 45 45 52 80 55 56 42 73 55 62 53 45 40 33 28 27 35 34 28 27 26 22 25 25 22 29 34 40 45 45 46 43 45 43 42 36
8 7 9 9 8 8 5 12 16 12 23 22 35 38 58 50 53 31 30 68 70 53 72 59 42 36 35 31 31 30 33 30 30 28 32 29 30 31 25 20 28 37 40 42 44 45 51 47 46
15 7 9 4 6 4 21 8 20 18 35 26 32 10 55 48 43 46 21 55 64 56 69 53 43 37 31 27 29 30 27 34 33 36 39 31 25 27 28 20 43 54 37 33 44 49 52 53 48
21 10 18 9 6 11 7 5 10 28 31 48 17 51 38 39 11 22 25 40 31 65 53 38 37 46 34 20 21 31 33 34 33 30 34 35 31 37 38 49 33 44 43 37 36 47 53 56 55
7 11 11 9 7 7 9 1 7 6 34 29 32 37 48 28 15 24 21 18 19 20 36 24 41 43 14 17 27 31 30 30 34 38 43 45 45 27 26 40 29 30 41 40 46 50 51 51 59
3 9 9 3 6 10 9 10 16 27 38 24 27 40 35 36 31 17 17 22 28 29 36 8 14 13 11 18 21 35 34 29 30 38 36 41 40 39 38 31 29 31 39 44 48 50 48 53 58
15 12 10 7 9 5 12 9 27 31 46 22 42 34 24 32 27 31 38 31 14 8 21 24 3 3 14 12 21 21 42 38 35 33 31 35 38 33 38 45 39 39 39 39 36 41 46 49 57
Wind_Direction_850mb
74 55 70 37 41 70 289 96 85 357 79 82 70 81 78 49 102 142 137 154 148 142 139 141 142 141 138 137 137 133 128 126 127 127 124 121 116 111 107 108 104 103 103 106 114 125 128 130 133
59 35 36 92 92 287 254 170 66 60 92 90 81 87 70 72 101 128 140 155 153 143 143 144 145 144 144 145 143 141 135 132 131 131 130 125 122 119 115 113 108 107 103 107 112 121 130 134 136
60 82 36 35 146 218 223 38 62 65 74 85 77 79 80 111 122 133 145 151 149 147 144 144 147 148 147 150 148 148 140 134 132 136 132 127 122 126 122 120 114 114 113 113 110 119 123 133 142
100 68 81 280 207 252 94 233 83 94 111 105 103 77 113 131 137 143 137 135 138 145 146 147 149 150 151 155 149 149 146 147 139 140 144 143 138 126 123 126 122 118 115 118 120 126 132 140 159
152 107 74 261 199 339 49 65 89 56 101 99 99 95 114 125 132 133 132 128 149 148 154 150 153 155 156 158 157 157 159 157 152 153 157 167 170 166 119 133 139 131 128 124 124 134 139 148 178
156 106 217 27 27 329 27 91 80 53 98 103 105 104 117 134 135 142 137 148 161 158 160 156 157 159 161 162 166 169 174 172 173 175 191 211 208 227 224 188 179 166 146 133 145 147 159 180 250
228 127 195 120 190 3 61 101 60 85 138 144 124 116 134 137 140 149 150 156 167 172 167 161 158 164 167 167 174 182 192 194 198 202 209 214 252 230 258 232 211 202 185 173 195 180 292 307 291
213 107 167 152 139 145 93 66 45 48 179 142 131 143 157 153 148 154 153 161 173 162 164 172 168 169 173 175 182 187 199 205 217 226 226 230 226 245 295 224 226 208 208 199 209 249 293 317 312
140 84 308 141 102 73 69 72 47 103 80 113 151 149 149 157 156 150 144 158 165 170 168 182 183 182 181 180 180 192 201 209 227 244 248 248 249 259 267 230 219 224 216 215 231 253 303 303 305
92 109 133 132 131 128 100 26 165 113 52 115 124 140 147 160 154 156 158 164 174 179 183 167 165 193 189 182 200 201 207 220 240 245 267 263 264 271 274 209 214 226 228 229 235 276 295 291 315
107 135 91 54 35 117 130 162 177 180 228 122 126 140 152 155 163 163 169 169 178 183 181 190 174 153 160 178 181 205 215 228 214 229 238 269 256 262 239 204 217 225 230 232 241 255 291 297 320
92 85 108 120 264 132 155 135 57 331 129 134 143 150 159 166 165 172 174 173 174 184 185 199 190 172 166 198 215 214 204 211 216 207 235 241 264 245 242 227 227 231 232 235 227 265 277 305 308
106 179 142 147 223 125 172 127 136 204 125 135 144 156 168 179 180 179 183 177 176 178 190 193 195 193 186 197 206 196 228 214 209 210 206 258 235 241 251 245 236 235 230 244 250 252 264 274 299
150 228 186 176 160 181 121 128 122 163 132 136 150 164 175 190 190 179 177 173 175 178 182 195 195 199 197 210 214 219 201 234 220 209 217 247 246 244 241 257 239 230 222 230 250 252 242 272 286
222 228 205 155 115 102 89 132 157 151 141 148 160 169 178 192 192 188 189 188 194 191 195 190 195 208 217 240 236 221 223 253 216 196 219 206 259 236 231 252 251 227 208 229 239 244 253 251 280
241 229 130 209 163 171 147 256 184 161 155 160 167 173 180 188 191 194 193 199 198 190 193 199 208 213 215 237 257 238 231 238 239 200 209 223 213 229 236 243 250 226 227 235 234 234 240 256 271
243 12 224 187 193 181 162 204 221 177 167 166 173 173 177 185 190 193 194 205 200 196 198 200 211 212 223 230 226 224 233 238 243 237 221 217 209 198 232 241 232 216 220 219 221 220 235 255 246
249 219 179 167 193 175 92 296 244 189 178 173 172 170 175 182 188 187 193 199 207 201 204 203 209 214 220 226 219 216 225 235 231 237 238 221 224 218 236 213 213 217 208 208 213 227 243 242 240
351 331 360 201 109 90 158 255 292 235 178 170 166 170 175 183 190 188 193 197 209 203 201 202 202 213 212 216 224 219 230 232 239 250 241 236 242 223 223 216 212 214 212 216 222 232 242 245 249
302 272 300 100 70 132 220 231 242 53 52 181 166 174 176 185 185 186 189 187 201 203 204 204 211 213 221 230 235 228 240 242 240 238 240 233 234 227 222 215 217 219 214 213 216 226 234 246 240
274 73 50 239 315 304 281 23 47 356 38 21 345 183 185 185 179 178 179 195 192 202 201 211 218 218 225 231 218 223 217 224 225 235 225 226 223 236 232 225 217 227 223 217 214 227 227 228 218
307 63 24 333 7 266 211 186 351 339 323 6 321 349 185 176 111 111 170 191 199 204 204 215 224 226 237 241 229 235 231 227 234 244 246 237 233 233 227 224 227 232 229 229 230 220 213 224 223
268 21 330 286 275 316 296 74 275 347 341 5 3 258 342 93 177 170 195 241 211 201 206 215 226 228 233 231 221 225 222 231 230 232 241 240 243 240 236 241 243 240 243 238 228 224 226 227 230
290 304 291 278 229 348 7 110 274 220 222 248 236 278 158 174 184 177 204 264 208 200 208 210 220 229 228 215 212 213 221 225 227 240 240 247 250 256 247 242 241 237 245 240 242 236 239 243 240
291 279 316 333 44 211 347 65 242 234 235 207 213 259 89 119 144 158 214 215 212 206 200 201 210 220 220 212 213 220 232 223 221 231 235 244 250 248 250 238 252 238 237 242 246 246 244 239 242
255 205 183 213 174 221 53 96 288 252 233 247 222 165 106 83 79 112 63 229 206 203 204 205 204 207 217 231 232 230 234 234 229 228 243 249 249 253 253 243 288 248 242 243 244 250 247 246 241
263 273 246 186 185 86 6 299 345 13 336 283 263 105 114 133 132 62 64 70 180 198 204 208 219 200 199 221 244 245 249 243 246 241 248 240 251 263 238 242 260 227 243 252 250 248 250 249 247
262 259 344 345 89 32 18 281 254 46 253 260 104 113 130 138 352 69 58 56 55 99 209 209 240 213 140 260 269 252 264 262 255 254 247 247 252 266 257 247 253 237 249 251 251 254 260 254 250
281 267 313 100 115 137 154 254 194 223 236 284 123 118 111 106 104 105 82 71 66 45 58 86 225 236 278 281 278 260 255 270 279 262 259 258 262 255 258 277 266 258 267 264 261 262 267 261 254
47 10 35 101 294 163 135 264 147 202 242 188 102 109 116 122 136 139 131 117 112 118 29 24 332 272 224 213 254 266 248 260 274 263 260 262 266 258 251 273 255 259 265 260 272 277 272 271 257